[Iaude] MPEC T82: 2023 TL2 [a=1.24,e=0.12,i=9.6,H=24.2]
    mpec at marsden.cfa.harvard.edu 
    mpec at marsden.cfa.harvard.edu
       
    Sat Oct  7 07:28:05 EDT 2023
    
    
  
M.P.E.C. 2023-T82                               Issued 2023 October 7, 11:26 UT
     The Minor Planet Electronic Circulars contain information on unusual
         minor planets, routine data on comets and natural satellites,
         and occasional editorial announcements.  They are published
    on behalf of Division F of the International Astronomical Union by the
          Minor Planet Center, Smithsonian Astrophysical Observatory,
                          Cambridge, MA 02138, U.S.A.
			  
             Prepared using the Tamkin Foundation Computer Network
                              MPC at CFA.HARVARD.EDU
            URL https://www.minorplanetcenter.net/    ISSN 1523-6714
                                    2023 TL2                                    
Observations:
     K23T02L* C2023 10 05.28404323 25 32.778+18 38 30.43         21.84wXET082F52
     K23T02L  C2023 10 05.29550323 25 32.783+18 37 52.42         21.05wXET082F52
     K23T02L  C2023 10 05.30698423 25 32.766+18 37 13.76         21.86wXET082F52
     K23T02L  C2023 10 05.31846923 25 32.754+18 36 34.88         21.32wXET082F52
     K23T02L  C2023 10 05.39792023 25 32.566+18 32 04.49         21.06GVET082F52
     K23T02L  C2023 10 05.39855723 25 32.565+18 32 02.12         21.12GVET082F52
     K23T02L KB2023 10 05.85491 23 25 44.798+18 05 29.47         21.5 VZET082J57
     K23T02L KB2023 10 05.87053 23 25 44.866+18 04 36.91         21.4 VZET082J57
     K23T02L KB2023 10 05.87986 23 25 44.935+18 04 04.62         21.4 VZET082J57
     K23T02L KC2023 10 07.09829223 26 15.30 +16 52 31.8          21.6 VuET082H21
     K23T02L KC2023 10 07.10668523 26 15.39 +16 52 02.0          21.8 VuET082H21
     K23T02L KC2023 10 07.11480123 26 15.47 +16 51 32.8          21.6 VuET082H21
Observer details:
F52 Pan-STARRS 2, Haleakala.  Observers J. Bulger, T. Lowe, P. Minguez, A.
    Schultz, I. Smith, K. Chambers, T. Dukes.  Measurers K. Chambers, T. de
    Boer, J. Bulger, J. Fairlamb, H. Gao, M. Huber, C.-C. Lin, T. Lowe, E.
    Magnier, P. Minguez, Y. Ramanjooloo, A. Schultz, I. Smith, R. Wainscoat,
    R. Weryk, S. Chastel.  1.8-m Ritchey-Chretien + CCD.
H21 Astronomical Research Observatory, Westfield.  Observer R. Holmes.
    Measurers T. Linder, R. Holmes, L. Horn.  0.76-m f/3.0 astrograph + CCD.
J57 Centro Astronomico Alto Turia, Valencia.  Observer A. Fornas.  Measurers
    A. Fornas, G. Fornas, E. Arce, V. Mas.  0.43-m f/6.8 Reflector 0.4m + CMO.
Orbital elements:
2023 TL2                                                 Earth MOID = 0.1151 AU
Epoch 2023 Sept. 13.0 TT = JDT 2460200.5                Bell                    
M 300.06070              (2000.0)            P               Q                  
n   0.71422019     Peri.  218.48402     +0.43457935     -0.89763103             
a   1.2395041      Node   206.00271     +0.86224347     +0.43823452             
e   0.1203796      Incl.    9.64856     +0.26014802     +0.04700039             
P   1.38           H   24.29          G   0.15           U   9                  
Residuals in seconds of arc
231005 F52  0.0   0.5-    231005 F52  0.0   0.2+    231005 J57  0.3+  0.1+
231005 F52  0.0   0.0     231005 F52  0.0   0.0     231007 H21  0.2-  0.2+
231005 F52  0.1-  0.1-    231005 J57  0.2+  0.6-    231007 H21  0.0   0.1+
231005 F52  0.1-  0.2-    231005 J57  0.1-  0.4+    231007 H21  0.2+  0.3-
Ephemeris:
2023 TL2                 a,e,i = 1.24, 0.12, 10                  q = 1.0903
Date    TT    R. A. (2000) Decl.     Delta      r    Elong.  Phase     V
2023 09 07    23 26 56.4 +33 21 16   0.2269  1.1903   139.8    33.1    22.8
...
2023 09 22    23 24 30.9 +28 34 10   0.1804  1.1637   149.9    25.6    22.1
...
2023 09 30    23 24 19.8 +23 14 57   0.1620  1.1504   154.8    21.7    21.7
...
2023 10 06    23 25 46.5 +17 57 32   0.1519  1.1410   156.6    20.3    21.5
2023 10 07    23 26 11.2 +16 58 49   0.1505  1.1395   156.7    20.3    21.5
2023 10 08    23 26 39.1 +15 58 39   0.1493  1.1380   156.6    20.4    21.5
...
2023 10 14    23 30 41.8 +09 33 38   0.1441  1.1294   154.4    22.4    21.4
...
2023 10 22    23 39 45.8 +00 36 52   0.1434  1.1190   147.5    28.5    21.6
...
2023 11 06    00 07 28.2 -13 35 57   0.1583  1.1034   131.8    42.0    22.1
M. P. C. Staff               (C) Copyright 2023 MPC           M.P.E.C. 2023-T82
    
    
More information about the Iaude
mailing list